sat.trackr.live / text

‹ back to catalog

STARLINK-30455

NORAD 57942 · 2023-148H

PAYLOAD ACTIVE UNKNOWN

§ Identity

Operator
Country
US
Launch date
2023-09-25
Launch site
AFWTR
Launch vehicle
Mass (kg)
RCS (m²)

Purposes: comms

External: N2YO · Heavens-Above · Gunter

§ Orbital elements

Epoch: 2026-05-25T01:57:22.434624Z

Period
94.11 min
Inclination
53.1610°
Eccentricity
0.0001570
Mean motion
15.30174485 rev/d
Perigee alt
474.2 km
Apogee alt
476.4 km
Semi-major
6,853.4 km
B*
1.9519e-4
RAAN
29.6490°
Arg perigee
84.3340°
Mean anomaly
275.7839°
Rev number
15,011

§ Raw data

STARLINK-304551 57942U 23148H   26145.08150966  .00005421  00000+0  19519-3 0  99972 57942  53.1610  29.6490 0001570  84.3340 275.7839 15.30174485150117

JSON: /api/v1/satellites/57942 · /tle

For live sub-satellite position, see the globe view (requires WebGL).

§ Visibility from observer

Set your observer location to see the next 7 days of passes ≥ 10°. The values pass through the URL so the page stays shareable.

No JS? Fill the form by hand. The geolocation button needs JavaScript.